Simultaneous Nadir Overpasses (SNOs) Predictions

Prediction of SNOs between GOES-15 and NPP Satellite Orbit:

Table of predicted SNOs for the next 14.0 days since TLE Epoch: 6/8/2014
Index Date Time (GOES-15) GOES-15 Lat,Lon NPP Lat,Lon Distance(km) Time Diff (sec)
1 06/08/2014 22:30:36 0.02,-135.33 0.17,-134.58 85.24 80
2 06/11/2014 10:33:42 -0.03,-135.38 -0.07,-135.33 7.05 80
3 06/13/2014 22:34:17 0.04,-135.40 -0.10,-136.10 79.44 80
4 06/14/2014 22:18:14 0.03,-135.40 0.91,-131.57 438.03 80
5 06/16/2014 10:37:23 -0.05,-135.42 0.26,-136.83 160.45 80
6 06/17/2014 10:21:20 -0.04,-135.43 -0.76,-132.30 356.78 80
7 06/18/2014 22:40:38 0.05,-135.42 -0.42,-137.60 247.83 80
8 06/19/2014 22:24:34 0.05,-135.43 0.59,-133.07 269.19 80
9 06/21/2014 10:43:44
